Location: DARK SKY Beskydy - Park tmavé oblohy, www.darkskybeskydy.cz
(49.4926°N, 18.5016°E)
Time: 14:40:03
(UTC+01:00)

Vanguard 1 - Pass Details

Date: 19 November 2025
Orbit: 650 x 3821 km, 34.2° (Epoch: 07 December)

Event Time Altitude Azimuth Distance (km) Brightness Sun altitude
Rises 17:03:54 0° 247° (WSW) 6,713 16.6 -10.5°
Reaches altitude 10° 17:08:00 10° 243° (WSW) 6,025 15.6 -11.1°
Maximum altitude 17:27:33 52° 175° (S) 4,361 13.3 -14.2°
Enters shadow 17:48:05 11° 108° (ESE) 6,369 13.7 -17.4°
